QPF
0.00 0.00 0.00 0.00 0.00 0.00 0.00 0.00 0.00 0.00 0.00 0.00 0.00 0.00 0.00 0.00 0.00 0.00 0.00 0.01 0.01 0.01 0.02 0.02 0.01 0.00 0.00 0.00 0.01 0.03 0.06 0.15 0.01 0.00 0.00 0.02 0.05 0.11 0.05 0.01 0.00 0.00 0.00
0.00 0.00 0.00 0.00 0.00 0.00 0.00 0.00 0.00 0.00 0.00 0.00 0.00 0.00 0.00 0.00 0.00 0.00 0.00 0.00 0.00 0.00 0.00 0.00 0.00 0.00 0.00 0.03 0.08 0.08 0.08 0.08 0.03 0.02 0.01 0.05 0.10 0.08 0.02 0.00 0.00 0.00 0.00
0.00 0.00 0.00 0.00 0.00 0.00 0.00 0.00 0.00 0.00 0.00 0.00 0.00 0.00 0.00 0.00 0.00 0.00 0.00 0.00 0.00 0.00 0.00 0.01 0.01 0.03 0.05 0.10 0.16 0.08 0.10 0.10 0.03 0.01 0.01 0.02 0.14 0.06 0.00 0.00 0.00 0.00 0.00
0.00 0.00 0.00 0.00 0.00 0.00 0.00 0.00 0.00 0.00 0.00 0.00 0.00 0.00 0.00 0.00 0.00 0.00 0.00 0.00 0.00 0.00 0.01 0.01 0.07 0.11 0.10 0.12 0.10 0.07 0.11 0.07 0.02 0.01 0.01 0.05 0.11 0.04 0.00 0.00 0.00 0.00 0.00
0.00 0.00 0.00 0.00 0.00 0.00 0.00 0.00 0.00 0.00 0.00 0.00 0.00 0.00 0.00 0.00 0.00 0.00 0.00 0.00 0.00 0.00 0.00 0.01 0.05 0.03 0.08 0.11 0.09 0.10 0.06 0.05 0.02 0.01 0.07 0.07 0.06 0.01 0.00 0.00 0.00 0.00 0.00
0.00 0.00 0.00 0.00 0.00 0.00 0.00 0.00 0.00 0.00 0.00 0.00 0.00 0.00 0.00 0.00 0.00 0.00 0.00 0.00 0.00 0.00 0.00 0.00 0.01 0.02 0.05 0.09 0.08 0.06 0.05 0.02 0.00 0.01 0.03 0.02 0.01 0.00 0.00 0.00 0.00 0.00 0.00
0.00 0.00 0.00 0.00 0.00 0.00 0.00 0.00 0.00 0.00 0.00 0.00 0.00 0.00 0.00 0.00 0.00 0.00 0.00 0.00 0.00 0.00 0.00 0.00 0.03 0.02 0.03 0.07 0.09 0.09 0.08 0.03 0.02 0.03 0.00 0.00 0.00 0.00 0.00 0.00 0.00 0.00 0.00
0.00 0.00 0.00 0.00 0.00 0.00 0.00 0.00 0.00 0.00 0.00 0.00 0.00 0.00 0.00 0.00 0.00 0.00 0.00 0.00 0.00 0.00 0.00 0.01 0.02 0.04 0.03 0.09 0.15 0.12 0.06 0.03 0.02 0.03 0.00 0.00 0.00 0.00 0.00 0.00 0.00 0.00 0.00
0.00 0.00 0.00 0.00 0.00 0.00 0.00 0.00 0.00 0.00 0.00 0.00 0.00 0.00 0.00 0.00 0.00 0.00 0.00 0.00 0.00 0.00 0.00 0.01 0.05 0.08 0.08 0.11 0.08 0.08 0.07 0.04 0.07 0.04 0.01 0.00 0.00 0.00 0.00 0.00 0.00 0.00 0.00
0.00 0.00 0.00 0.00 0.00 0.00 0.00 0.00 0.00 0.00 0.00 0.00 0.00 0.00 0.00 0.00 0.00 0.00 0.00 0.00 0.00 0.00 0.01 0.09 0.13 0.10 0.14 0.07 0.06 0.06 0.05 0.07 0.07 0.01 0.00 0.00 0.00 0.00 0.00 0.00 0.00 0.00 0.00
0.00 0.00 0.00 0.00 0.00 0.00 0.00 0.00 0.00 0.00 0.00 0.00 0.00 0.00 0.00 0.00 0.00 0.00 0.00 0.00 0.00 0.01 0.06 0.13 0.10 0.14 0.17 0.18 0.12 0.10 0.07 0.01 0.00 0.00 0.00 0.00 0.00 0.00 0.00 0.00 0.00 0.00 0.00
0.00 0.00 0.00 0.00 0.00 0.00 0.00 0.00 0.00 0.00 0.00 0.00 0.00 0.00 0.00 0.00 0.00 0.00 0.00 0.00 0.00 0.02 0.08 0.14 0.09 0.10 0.13 0.13 0.13 0.13 0.03 0.00 0.00 0.00 0.00 0.00 0.00 0.00 0.00 0.00 0.00 0.00 0.00
0.00 0.00 0.00 0.00 0.00 0.00 0.00 0.00 0.00 0.00 0.00 0.00 0.00 0.00 0.00 0.00 0.00 0.00 0.00 0.00 0.00 0.01 0.10 0.20 0.24 0.16 0.16 0.16 0.15 0.07 0.01 0.00 0.00 0.00 0.00 0.00 0.00 0.00 0.00 0.00 0.00 0.00 0.00
0.00 0.00 0.00 0.00 0.00 0.00 0.00 0.00 0.00 0.00 0.00 0.01 0.01 0.00 0.00 0.00 0.00 0.00 0.00 0.00 0.00 0.04 0.14 0.21 0.18 0.13 0.10 0.14 0.10 0.02 0.00 0.01 0.00 0.00 0.00 0.00 0.00 0.00 0.00 0.00 0.00 0.00 0.00
0.00 0.00 0.00 0.00 0.00 0.00 0.00 0.00 0.00 0.00 0.00 0.01 0.01 0.01 0.01 0.00 0.00 0.00 0.00 0.00 0.02 0.08 0.10 0.14 0.15 0.12 0.09 0.09 0.05 0.01 0.00 0.01 0.02 0.00 0.00 0.00 0.00 0.01 0.00 0.00 0.00 0.00 0.00
0.00 0.00 0.00 0.00 0.00 0.00 0.00 0.00 0.00 0.00 0.00 0.00 0.01 0.01 0.01 0.00 0.00 0.00 0.00 0.04 0.14 0.23 0.22 0.11 0.10 0.05 0.05 0.03 0.00 0.00 0.00 0.01 0.05 0.03 0.01 0.00 0.00 0.00 0.00 0.00 0.00 0.00 0.00
0.00 0.00 0.00 0.00 0.00 0.00 0.00 0.00 0.00 0.00 0.00 0.00 0.00 0.00 0.00 0.00 0.00 0.02 0.04 0.09 0.16 0.22 0.23 0.16 0.05 0.00 0.00 0.00 0.00 0.00 0.00 0.00 0.03 0.03 0.01 0.00 0.00 0.00 0.00 0.00 0.00 0.00 0.00
0.01 0.00 0.00 0.00 0.00 0.00 0.00 0.00 0.00 0.00 0.00 0.00 0.00 0.00 0.00 0.00 0.01 0.03 0.05 0.08 0.11 0.16 0.16 0.10 0.05 0.00 0.00 0.00 0.00 0.00 0.00 0.00 0.00 0.00 0.00 0.01 0.01 0.02 0.00 0.00 0.00 0.00 0.00
0.00 0.00 0.00 0.00 0.00 0.00 0.00 0.00 0.00 0.00 0.00 0.00 0.00 0.00 0.00 0.00 0.02 0.05 0.07 0.12 0.11 0.10 0.10 0.07 0.02 0.00 0.00 0.00 0.00 0.00 0.00 0.00 0.00 0.00 0.00 0.00 0.00 0.00 0.00 0.00 0.00 0.00 0.00
0.00 0.00 0.00 0.00 0.00 0.00 0.00 0.00 0.00 0.00 0.00 0.00 0.00 0.00 0.00 0.00 0.03 0.06 0.07 0.14 0.12 0.10 0.08 0.02 0.00 0.00 0.00 0.00 0.00 0.00 0.00 0.00 0.00 0.00 0.00 0.00 0.00 0.00 0.00 0.00 0.00 0.00 0.00
0.00 0.00 0.00 0.01 0.00 0.00 0.00 0.01 0.01 0.00 0.00 0.00 0.00 0.00 0.01 0.02 0.05 0.07 0.06 0.08 0.07 0.05 0.02 0.00 0.00 0.00 0.00 0.00 0.00 0.00 0.00 0.00 0.00 0.01 0.00 0.00 0.00 0.00 0.00 0.00 0.00 0.00 0.00
0.00 0.00 0.01 0.01 0.01 0.02 0.01 0.01 0.01 0.00 0.00 0.00 0.00 0.02 0.03 0.04 0.06 0.06 0.05 0.04 0.02 0.01 0.00 0.00 0.00 0.00 0.00 0.00 0.00 0.00 0.00 0.00 0.00 0.01 0.00 0.00 0.00 0.00 0.00 0.00 0.00 0.00 0.00
0.00 0.00 0.00 0.00 0.00 0.01 0.00 0.01 0.01 0.01 0.01 0.01 0.01 0.02 0.04 0.04 0.03 0.03 0.02 0.00 0.00 0.00 0.00 0.00 0.00 0.00 0.00 0.00 0.00 0.00 0.00 0.00 0.00 0.00 0.00 0.00 0.00 0.00 0.00 0.00 0.00 0.00 0.00
0.00 0.00 0.00 0.00 0.00 0.00 0.00 0.01 0.01 0.01 0.01 0.01 0.02 0.03 0.03 0.03 0.02 0.01 0.00 0.00 0.00 0.00 0.00 0.00 0.00 0.00 0.00 0.00 0.00 0.00 0.00 0.00 0.00 0.00 0.00 0.00 0.00 0.00 0.00 0.00 0.00 0.00 0.00
0.00 0.01 0.00 0.00 0.01 0.01 0.01 0.00 0.00 0.00 0.01 0.01 0.01 0.01 0.01 0.01 0.00 0.00 0.00 0.00 0.01 0.00 0.00 0.00 0.00 0.00 0.01 0.01 0.01 0.00 0.00 0.00 0.00 0.00 0.00 0.00 0.00 0.00 0.00 0.00 0.00 0.00 0.00
0.00 0.01 0.01 0.02 0.02 0.01 0.00 0.00 0.00 0.00 0.00 0.00 0.00 0.00 0.00 0.00 0.00 0.00 0.00 0.00 0.00 0.00 0.00 0.00 0.00 0.00 0.01 0.01 0.01 0.00 0.00 0.00 0.00 0.00 0.00 0.00 0.00 0.00 0.00 0.00 0.00 0.00 0.00
MSLP
1003.67 1004.16 1004.58 1004.96 1005.22 1005.54 1005.91 1005.92 1006.01 1006.10 1006.21 1006.50 1006.57 1006.67 1006.73 1007.11 1007.42 1008.00 1007.88 1007.91 1007.79 1007.42 1007.51 1007.86 1007.85 1007.89 1007.98 1008.08 1008.31 1008.53 1008.44 1008.86 1008.62 1008.12 1008.28 1008.59 1008.44 1008.39 1008.56 1008.75 1008.57 1008.76 1009.13
1002.93 1003.63 1004.11 1004.58 1004.93 1005.20 1005.43 1005.46 1005.50 1005.75 1005.81 1005.97 1006.14 1006.34 1006.69 1007.04 1007.21 1007.44 1007.66 1007.48 1007.44 1007.01 1006.79 1007.19 1007.13 1006.99 1006.94 1006.96 1006.96 1007.46 1007.46 1007.77 1007.80 1008.06 1008.42 1008.64 1008.51 1008.50 1008.80 1009.05 1008.95 1009.05 1009.32
1003.06 1003.26 1003.71 1004.03 1004.34 1004.50 1004.74 1004.95 1005.14 1005.39 1005.57 1005.79 1006.10 1006.47 1006.45 1006.56 1006.81 1006.94 1006.96 1006.77 1006.69 1006.26 1005.98 1005.77 1005.62 1005.77 1005.80 1005.77 1005.90 1006.38 1006.58 1006.80 1007.17 1007.77 1008.35 1008.36 1008.65 1008.90 1009.00 1008.99 1009.12 1009.47 1009.68
1003.09 1003.51 1003.45 1003.53 1003.68 1003.84 1004.03 1004.39 1004.49 1004.87 1005.30 1005.57 1005.78 1005.91 1006.05 1006.07 1006.10 1006.14 1006.14 1006.13 1005.84 1005.37 1005.31 1005.11 1004.66 1004.74 1004.78 1004.59 1005.22 1005.24 1005.80 1006.28 1006.57 1007.10 1007.71 1008.39 1008.59 1008.87 1008.55 1008.97 1009.25 1009.43 1009.94
1002.58 1002.99 1003.44 1003.38 1003.49 1003.72 1003.79 1003.85 1004.09 1004.54 1004.89 1005.06 1005.25 1005.55 1005.67 1005.73 1005.73 1005.63 1005.51 1005.49 1005.23 1004.79 1004.44 1004.32 1003.92 1003.75 1003.94 1003.98 1004.34 1004.55 1004.94 1005.58 1006.30 1006.51 1007.56 1008.24 1008.43 1008.63 1008.38 1008.78 1009.17 1009.37 1009.78
1002.56 1002.79 1002.90 1003.29 1003.59 1003.63 1003.67 1003.78 1004.14 1004.32 1004.50 1004.64 1004.74 1005.07 1005.29 1005.29 1005.09 1004.88 1004.86 1004.96 1004.70 1004.26 1004.03 1003.64 1003.29 1003.07 1003.24 1003.21 1003.42 1003.10 1003.82 1004.39 1005.36 1006.25 1006.92 1007.43 1007.52 1007.87 1007.93 1008.42 1008.98 1009.63 1009.78
1002.97 1002.71 1002.51 1002.72 1002.80 1002.92 1003.18 1003.43 1003.71 1003.96 1003.98 1004.21 1004.42 1004.56 1004.65 1004.75 1004.61 1004.28 1004.15 1004.31 1004.23 1003.92 1003.65 1003.19 1002.79 1002.47 1002.53 1002.62 1003.07 1003.03 1003.71 1003.24 1003.78 1005.00 1005.88 1006.45 1006.84 1006.70 1007.38 1008.17 1008.77 1009.22 1009.28
1002.02 1001.78 1001.76 1001.96 1001.97 1002.02 1002.19 1002.43 1002.76 1003.18 1003.52 1003.68 1003.74 1004.00 1004.19 1004.07 1003.97 1003.76 1003.38 1003.72 1003.74 1003.25 1002.83 1002.49 1002.25 1001.88 1001.91 1001.98 1002.42 1003.13 1003.32 1003.95 1004.42 1004.48 1004.79 1005.32 1005.59 1006.15 1006.43 1007.20 1008.22 1008.97 1009.06
1000.90 1000.87 1000.99 1001.18 1001.33 1001.53 1001.74 1002.06 1002.41 1002.94 1003.08 1003.18 1003.16 1003.21 1003.31 1003.29 1003.25 1003.16 1002.95 1003.00 1002.93 1002.53 1002.05 1001.78 1001.49 1001.19 1001.11 1001.50 1001.96 1002.57 1003.36 1004.24 1004.36 1004.21 1004.61 1005.14 1005.42 1005.68 1006.29 1007.36 1008.36 1008.85 1009.10
999.54 999.66 999.91 1000.11 1000.27 1000.64 1000.95 1001.45 1001.71 1001.91 1002.01 1002.27 1002.21 1002.53 1002.73 1002.52 1002.31 1002.37 1002.33 1002.24 1002.40 1001.99 1001.52 1001.20 1000.88 1000.49 1001.13 1001.00 1001.36 1001.82 1003.40 1003.81 1003.83 1004.34 1004.96 1005.08 1005.35 1005.77 1006.54 1007.06 1007.88 1008.28 1008.71
998.31 998.31 998.50 998.68 999.02 999.41 999.93 1000.41 1000.85 1001.12 1001.35 1001.56 1001.70 1001.93 1001.99 1001.90 1001.57 1001.56 1001.43 1001.58 1001.65 1001.60 1001.32 1000.93 1000.60 1000.51 1001.08 1001.61 1000.77 1002.19 1002.73 1002.89 1003.61 1004.26 1004.96 1005.25 1005.68 1006.30 1006.94 1007.13 1007.41 1007.68 1008.27
997.08 997.05 997.19 997.55 997.96 998.44 999.00 999.58 999.98 1000.33 1000.65 1000.95 1001.24 1001.33 1001.25 1001.04 1000.87 1000.76 1000.69 1000.87 1000.80 1001.25 1000.76 1000.41 1000.13 1000.52 1000.94 1001.02 1001.99 1002.81 1002.59 1003.03 1003.68 1004.42 1005.09 1005.60 1006.15 1006.89 1007.01 1007.06 1007.26 1007.42 1007.44
996.00 996.04 996.20 996.52 996.87 997.40 997.97 998.64 999.22 999.59 999.93 1000.23 1000.54 1000.58 1000.41 1000.20 999.88 1000.09 999.60 999.88 1000.31 1000.75 1000.12 999.44 999.71 1000.22 1000.80 1001.73 1003.00 1002.91 1002.72 1003.26 1003.95 1004.58 1005.08 1005.77 1006.07 1006.45 1006.83 1007.07 1007.16 1007.25 1007.40
994.39 994.65 995.11 995.58 995.99 996.51 997.05 997.60 998.18 998.63 999.07 999.41 999.65 999.68 999.57 999.45 999.03 999.19 998.80 999.12 999.75 1000.02 999.90 999.73 1000.12 999.97 1000.90 1001.71 1002.98 1003.03 1002.62 1003.00 1003.46 1004.15 1004.97 1005.53 1006.04 1006.56 1006.76 1006.77 1007.28 1007.52 1007.78
993.01 993.40 993.87 994.51 995.15 995.65 996.11 996.67 997.25 997.60 997.91 998.36 998.63 998.76 998.72 998.59 998.23 998.15 998.45 998.76 998.88 999.11 999.48 999.74 1000.03 1000.21 1001.16 1001.98 1002.44 1002.64 1002.75 1003.09 1003.52 1004.17 1004.87 1005.58 1005.91 1006.28 1006.57 1006.72 1007.22 1007.57 1007.94
991.64 992.14 992.69 993.36 994.04 994.79 995.48 996.15 996.64 996.95 997.19 997.28 997.35 997.80 997.87 997.87 997.70 997.92 998.13 998.30 998.58 999.00 999.25 999.35 999.29 999.80 1000.45 1001.14 1001.65 1002.28 1002.63 1003.04 1003.59 1004.12 1004.73 1005.23 1005.64 1006.13 1006.45 1006.87 1007.16 1007.45 1007.89
990.78 991.56 992.13 992.75 993.34 994.00 994.80 995.47 996.09 996.66 996.80 997.07 997.33 997.48 997.44 997.61 997.42 997.55 997.57 998.19 998.50 999.08 998.81 998.65 999.06 999.36 1000.05 1000.86 1001.37 1001.83 1002.37 1002.90 1003.21 1003.92 1004.32 1004.98 1005.53 1005.99 1006.44 1006.82 1007.09 1007.44 1007.82
990.34 990.87 991.48 992.18 992.81 993.45 994.05 994.61 995.23 995.66 996.10 996.22 996.42 996.68 996.83 997.00 997.34 997.28 997.42 998.22 998.81 998.62 998.13 998.06 998.88 999.18 1000.00 1000.57 1001.17 1001.69 1002.22 1002.72 1003.30 1003.78 1004.28 1004.77 1005.27 1005.70 1006.24 1006.64 1006.99 1007.30 1007.67
990.11 990.78 991.30 991.84 992.51 993.10 993.59 994.06 994.42 994.81 995.01 995.28 995.62 996.08 996.21 996.40 996.81 996.94 997.41 997.30 997.27 997.63 997.59 998.63 998.73 999.26 999.86 1000.60 1001.10 1001.47 1002.19 1002.84 1003.22 1003.62 1004.16 1004.83 1005.33 1005.74 1006.32 1006.74 1007.18 1007.44 1007.71
990.26 990.69 991.14 991.51 992.01 992.61 992.92 993.23 993.46 993.82 994.21 994.65 995.12 995.37 995.58 995.80 996.34 996.79 996.90 996.43 996.78 996.95 997.85 998.71 998.69 999.23 1000.01 1000.44 1000.92 1001.77 1002.37 1002.76 1003.15 1003.65 1004.23 1004.81 1005.37 1005.81 1006.32 1006.76 1007.24 1007.61 1007.80
989.93 990.35 990.58 990.98 991.33 991.66 992.00 992.35 992.82 993.18 993.65 994.00 994.28 994.51 994.57 994.80 995.67 995.79 995.86 995.95 996.49 997.20 997.85 998.12 998.67 999.36 999.81 1000.49 1001.26 1001.72 1002.12 1002.58 1003.07 1003.66 1004.38 1004.94 1005.40 1005.99 1006.40 1006.83 1007.18 1007.40 1007.74
989.68 989.65 989.59 990.12 990.44 990.83 991.13 991.39 991.76 992.36 993.02 993.45 993.95 994.31 994.17 994.30 994.57 995.23 995.68 996.27 996.77 997.31 997.42 997.93 998.68 999.21 999.91 1000.62 1001.07 1001.49 1001.92 1002.55 1003.20 1003.77 1004.43 1005.00 1005.50 1006.06 1006.55 1006.99 1007.43 1007.81 1008.08
988.22 987.81 987.75 988.50 989.09 989.47 989.90 990.48 991.03 991.86 992.73 993.08 993.16 993.65 993.79 994.27 994.88 995.19 996.26 996.94 997.32 997.61 997.93 998.21 998.93 999.90 1000.35 1000.69 1000.82 1001.11 1001.93 1002.65 1003.20 1003.83 1004.58 1005.22 1005.84 1006.47 1007.00 1007.54 1007.92 1008.34 1008.80
987.95 988.39 988.62 989.05 989.47 989.81 990.32 990.79 991.30 991.68 992.44 992.54 992.80 993.12 994.10 994.66 995.43 996.46 997.07 997.60 997.95 998.34 998.67 999.08 999.64 1000.23 1000.46 1000.73 1001.17 1001.76 1002.26 1002.73 1003.28 1004.06 1004.57 1005.42 1006.31 1006.95 1007.53 1008.11 1008.64 1009.22 1009.84
988.94 989.23 989.69 990.27 990.57 990.74 991.13 991.72 992.33 992.84 993.00 993.25 993.64 993.68 994.33 995.70 996.70 997.53 998.03 998.37 998.72 999.26 999.92 1000.13 1000.38 1000.53 1000.74 1001.26 1001.86 1002.45 1002.96 1003.30 1003.78 1004.47 1005.15 1005.91 1006.76 1007.53 1008.27 1009.01 1009.64 1010.31 1010.82
990.62 990.54 990.69 991.04 991.43 991.86 992.23 992.68 993.20 993.64 994.17 994.71 995.21 995.81 996.46 997.22 998.00 998.56 999.04 999.37 999.89 1000.37 1000.72 1001.04 1001.24 1001.32 1001.69 1002.38 1002.97 1003.36 1003.70 1004.09 1004.69 1005.18 1005.79 1006.66 1007.60 1008.53 1009.19 1009.92 1010.53 1011.21 1011.86
Thickness
5642 5642 5642 5642 5644 5645 5646 5650 5653 5656 5658 5659 5662 5665 5667 5667 5668 5665 5669 5669 5673 5680 5683 5683 5688 5692 5695 5692 5693 5691 5693 5687 5689 5694 5694 5691 5690 5687 5683 5676 5673 5669 5662
5639 5637 5636 5636 5636 5637 5639 5642 5646 5648 5650 5651 5654 5656 5657 5657 5659 5659 5659 5661 5663 5673 5678 5679 5683 5689 5692 5693 5697 5694 5692 5689 5688 5687 5687 5683 5681 5681 5675 5668 5665 5661 5657
5626 5628 5628 5630 5630 5631 5633 5635 5637 5640 5642 5643 5644 5644 5647 5650 5652 5654 5656 5659 5661 5670 5676 5683 5689 5690 5690 5696 5696 5693 5691 5690 5686 5684 5679 5678 5674 5668 5668 5663 5659 5654 5649
5613 5614 5618 5621 5623 5626 5628 5629 5632 5633 5633 5634 5635 5638 5641 5645 5649 5651 5654 5656 5660 5668 5672 5678 5689 5690 5692 5695 5691 5694 5689 5686 5685 5684 5678 5671 5668 5664 5666 5658 5653 5650 5642
5603 5605 5605 5608 5612 5614 5618 5622 5625 5625 5626 5628 5629 5631 5633 5637 5642 5646 5650 5653 5657 5665 5669 5673 5684 5690 5690 5692 5691 5690 5688 5684 5680 5681 5671 5665 5663 5663 5663 5654 5649 5646 5639
5587 5590 5595 5596 5598 5601 5606 5610 5612 5615 5617 5619 5623 5624 5627 5631 5638 5643 5647 5650 5655 5660 5665 5670 5678 5683 5688 5689 5692 5696 5690 5687 5680 5673 5669 5667 5666 5662 5659 5652 5646 5638 5635
5568 5576 5583 5585 5592 5595 5597 5600 5602 5604 5609 5611 5614 5618 5621 5625 5630 5638 5643 5647 5651 5655 5661 5669 5676 5683 5684 5688 5686 5687 5685 5690 5687 5680 5674 5669 5665 5665 5657 5648 5642 5635 5634
5564 5573 5577 5577 5583 5588 5593 5597 5599 5597 5598 5602 5608 5611 5614 5620 5624 5631 5640 5642 5647 5655 5662 5669 5674 5679 5681 5684 5683 5682 5681 5675 5673 5680 5678 5674 5670 5664 5660 5653 5640 5632 5632
5561 5566 5569 5570 5573 5576 5580 5583 5583 5581 5585 5591 5598 5602 5607 5614 5618 5625 5633 5640 5645 5652 5660 5666 5671 5678 5681 5678 5681 5679 5673 5664 5668 5674 5673 5668 5665 5662 5656 5646 5633 5629 5626
5553 5557 5558 5561 5564 5567 5571 5570 5569 5572 5579 5582 5591 5593 5596 5607 5614 5619 5627 5637 5640 5647 5655 5662 5666 5677 5671 5675 5680 5678 5663 5663 5670 5668 5664 5661 5658 5653 5648 5642 5633 5629 5624
5539 5545 5548 5553 5556 5559 5558 5557 5558 5558 5562 5565 5573 5579 5584 5592 5606 5611 5621 5631 5636 5642 5648 5656 5663 5665 5664 5661 5674 5665 5661 5668 5666 5662 5657 5655 5650 5645 5640 5638 5634 5630 5625
5526 5532 5539 5543 5546 5548 5546 5546 5546 5546 5547 5550 5554 5562 5571 5581 5593 5605 5616 5621 5629 5636 5645 5653 5659 5656 5658 5659 5655 5649 5653 5659 5659 5653 5648 5643 5639 5634 5634 5634 5631 5629 5629
5509 5517 5525 5533 5537 5537 5535 5535 5535 5535 5538 5540 5543 5551 5562 5573 5586 5597 5612 5616 5619 5625 5640 5651 5654 5652 5649 5645 5640 5640 5650 5652 5649 5645 5641 5635 5635 5633 5630 5629 5628 5626 5626
5500 5507 5513 5519 5525 5527 5528 5529 5529 5530 5531 5534 5538 5543 5554 5567 5580 5592 5605 5612 5615 5624 5633 5639 5643 5647 5645 5643 5631 5638 5648 5648 5647 5642 5635 5632 5630 5626 5626 5627 5623 5622 5621
5499 5505 5509 5512 5516 5520 5523 5525 5527 5529 5530 5531 5535 5541 5550 5562 5577 5588 5601 5609 5617 5625 5628 5633 5642 5640 5640 5635 5635 5638 5641 5641 5640 5635 5631 5628 5627 5624 5623 5622 5619 5617 5617
5500 5506 5511 5514 5517 5516 5518 5519 5518 5520 5521 5523 5527 5535 5548 5557 5570 5582 5592 5602 5611 5616 5627 5635 5642 5643 5640 5637 5639 5638 5637 5637 5633 5630 5628 5626 5623 5622 5621 5617 5616 5616 5615
5498 5502 5508 5511 5514 5515 5517 5517 5517 5512 5513 5514 5516 5520 5533 5555 5567 5580 5592 5598 5604 5610 5629 5635 5638 5642 5641 5637 5637 5637 5635 5632 5630 5628 5628 5623 5620 5619 5616 5616 5615 5613 5612
5495 5498 5506 5510 5513 5514 5515 5516 5514 5517 5520 5524 5522 5525 5536 5552 5565 5578 5588 5594 5604 5615 5628 5635 5635 5639 5636 5635 5634 5633 5630 5628 5626 5625 5623 5620 5617 5617 5615 5615 5614 5613 5611
5494 5497 5505 5509 5508 5509 5510 5513 5516 5523 5529 5533 5536 5538 5548 5559 5569 5579 5588 5609 5619 5622 5628 5626 5633 5634 5633 5631 5630 5630 5627 5624 5624 5623 5620 5615 5613 5613 5611 5609 5606 5603 5606
5502 5503 5507 5510 5512 5510 5514 5519 5529 5535 5540 5543 5546 5556 5562 5571 5578 5587 5600 5614 5618 5623 5623 5624 5630 5630 5628 5628 5627 5623 5621 5621 5621 5620 5617 5614 5612 5611 5608 5607 5604 5603 5602
5520 5518 5519 5519 5520 5523 5526 5531 5536 5542 5546 5554 5559 5564 5568 5583 5588 5599 5608 5614 5619 5621 5622 5626 5627 5626 5626 5624 5622 5622 5621 5621 5620 5617 5614 5611 5610 5606 5605 5604 5603 5603 5601
5541 5545 5547 5543 5545 5545 5548 5552 5555 5556 5557 5563 5566 5566 5573 5596 5602 5606 5612 5614 5616 5619 5623 5624 5623 5624 5623 5621 5621 5620 5620 5618 5616 5614 5611 5608 5606 5604 5604 5602 5600 5599 5597
5578 5587 5590 5585 5581 5578 5580 5580 5581 5578 5576 5581 5587 5591 5598 5600 5605 5613 5610 5610 5611 5614 5617 5620 5619 5616 5616 5617 5620 5623 5619 5615 5613 5610 5606 5604 5602 5599 5597 5594 5594 5592 5589
5602 5599 5600 5600 5599 5598 5595 5595 5593 5591 5597 5601 5605 5608 5604 5602 5604 5602 5601 5603 5606 5607 5609 5611 5611 5610 5612 5614 5616 5615 5613 5611 5609 5606 5605 5601 5596 5592 5589 5586 5583 5579 5574
5605 5604 5602 5600 5600 5601 5600 5597 5595 5595 5599 5602 5600 5599 5605 5601 5597 5595 5596 5598 5599 5600 5599 5601 5604 5606 5609 5610 5608 5605 5604 5604 5603 5601 5598 5594 5589 5585 5581 5576 5573 5568 5564
5603 5604 5603 5602 5601 5600 5599 5597 5596 5595 5594 5594 5593 5592 5591 5589 5587 5587 5588 5590 5590 5589 5590 5592 5595 5599 5600 5597 5595 5595 5596 5596 5594 5593 5589 5585 5581 5575 5572 5567 5563 5558 5552